DW5686 Weather Reports


time (UTC)temp
F
wind
direction
speed
knots
gust
knots
rain 1hr
in
rain 24hr
in
rain mn
in
humidity
%
barometer
mb
20260505032503 63 212 2.6 6.1 0.00 0.00 0.00 46 1015.1
20260505032003 63 136 1.7 6.1 0.00 0.00 0.00 46 1015.1
20260505031502 63 224 1.7 6.1 0.00 0.00 0.00 45 1015.1
20260505031002 63 176 3.5 6.1 0.00 0.00 0.00 45 1015.0
20260505030502 62 162 2.6 6.1 0.00 0.00 0.00 46 1015.0
20260505030002 62 151 1.7 5.2 0.00 0.00 0.00 47 1015.0
20260505025524 62 158 1.7 5.2 0.00 0.00 0.00 47 1015.0
20260505025023 62 160 0.0 7.8 0.00 0.00 0.00 48 1015.0
20260505024524 62 140 1.7 7.8 0.00 0.00 0.00 47 1015.0
20260505024024 61 117 1.7 5.2 0.00 0.00 0.00 49 1015.0
20260505023502 61 157 1.7 5.2 0.00 0.00 0.00 48 1015.0
20260505023003 62 149 1.7 5.2 0.00 0.00 0.00 48 1014.8
20260505022502 62 153 0.9 3.5 0.00 0.00 0.00 48 1014.9
20260505022002 62 153 0.9 3.5 0.00 0.00 0.00 48 1014.8
20260505021503 62 154 0.0 2.6 0.00 0.00 0.00 47 1014.8
20260505021024 63 154 0.9 4.3 0.00 0.00 0.00 47 1014.8
20260505020503 63 154 1.7 4.3 0.00 0.00 0.00 46 1014.8
20260505020023 63 154 1.7 2.6 0.00 0.00 0.00 45 1014.7
20260505015502 64 0 0.0 1.7 0.00 0.00 0.00 44 1014.6
20260505015003 64 154 0.0 1.7 0.00 0.00 0.00 44 1014.7
20260505014503 65 154 0.9 1.7 0.00 0.00 0.00 43 1014.6
20260505014002 65 154 0.9 2.6 0.00 0.00 0.00 43 1014.6
20260505013503 66 154 0.9 2.6 0.00 0.00 0.00 41 1014.5
20260505013002 66 154 0.9 4.3 0.00 0.00 0.00 41 1014.5
20260505012503 66 161 1.7 5.2 0.00 0.00 0.00 39 1014.4
20260505012003 67 141 2.6 5.2 0.00 0.00 0.00 38 1014.4
20260505011503 67 162 0.9 6.1 0.00 0.00 0.00 38 1014.3
20260505011023 68 149 1.7 6.1 0.00 0.00 0.00 37 1014.3
20260505010503 68 147 3.5 6.1 0.00 0.00 0.00 37 1014.2
20260505010023 68 159 2.6 4.3 0.00 0.00 0.00 37 1014.2
20260505005525 69 154 2.6 6.1 0.00 0.00 0.00 36 1014.2
20260505005002 69 157 2.6 6.1 0.00 0.00 0.00 35 1014.0
20260505004502 70 146 2.6 6.1 0.00 0.00 0.00 35 1013.9
20260505004003 70 154 1.7 6.1 0.00 0.00 0.00 34 1013.9
20260505003503 70 161 4.3 6.1 0.00 0.00 0.00 34 1013.9
20260505003002 70 154 4.3 6.1 0.00 0.00 0.00 33 1013.7
20260505002502 71 165 3.5 6.1 0.00 0.00 0.00 33 1013.7
20260505002002 71 195 0.9 6.1 0.00 0.00 0.00 33 1013.7
20260505001524 72 218 2.6 6.1 0.00 0.00 0.00 32 1013.6
20260505001003 72 200 1.7 7.0 0.00 0.00 0.00 32 1013.7
20260505000523 73 161 3.5 7.8 0.00 0.00 0.00 31 1013.7
20260505000003 73 177 3.5 7.8 0.00 0.00 0.00 30 1013.6
20260504235504 73 181 2.6 7.8 0.00 0.00 0.00 30 1013.6
20260504235002 73 194 2.6 8.7 0.00 0.00 0.00 30 1013.5
20260504234524 74 165 2.6 8.7 0.00 0.00 0.00 29 1013.4
20260504234002 74 173 3.5 7.8 0.00 0.00 0.00 29 1013.3
20260504233502 74 150 3.5 7.8 0.00 0.00 0.00 29 1013.3
20260504233003 74 161 1.7 7.0 0.00 0.00 0.00 28 1013.1
20260504232503 75 169 4.3 7.0 0.00 0.00 0.00 28 1013.2
20260504232003 75 157 5.2 10.4 0.00 0.00 0.00 28 1013.2
20260504231503 75 183 4.3 10.4 0.00 0.00 0.00 28 1013.1
20260504231003 75 164 2.6 10.4 0.00 0.00 0.00 28 1013.2
20260504230502 75 180 2.6 9.6 0.00 0.00 0.00 28 1013.2
20260504230002 75 166 5.2 9.6 0.00 0.00 0.00 28 1013.1
20260504225503 75 186 3.5 8.7 0.00 0.00 0.00 28 1013.1
20260504225023 75 174 4.3 7.0 0.00 0.00 0.00 28 1013.1
20260504224504 75 170 4.3 14.8 0.00 0.00 0.00 27 1013.2
20260504224004 76 167 4.3 14.8 0.00 0.00 0.00 27 1013.2
20260504223503 76 179 6.1 13.0 0.00 0.00 0.00 26 1013.2
20260504223024 76 164 6.1 11.3 0.00 0.00 0.00 26 1013.3
20260504222502 76 166 7.0 11.3 0.00 0.00 0.00 26 1013.2
20260504222002 76 161 4.3 7.8 0.00 0.00 0.00 27 1013.3
20260504221502 76 210 3.5 8.7 0.00 0.00 0.00 26 1013.2
20260504221002 76 208 3.5 10.4 0.00 0.00 0.00 27 1013.2
20260504220502 76 177 7.0 10.4 0.00 0.00 0.00 26 1013.2
20260504220003 76 174 5.2 10.4 0.00 0.00 0.00 26 1013.4
20260504215502 76 193 3.5 9.6 0.00 0.00 0.00 26 1013.4
20260504215003 76 178 3.5 11.3 0.00 0.00 0.00 26 1013.2
20260504214524 76 195 4.3 11.3 0.00 0.00 0.00 27 1013.3
20260504214002 76 234 3.5 9.6 0.00 0.00 0.00 26 1013.3
20260504213523 77 179 3.5 13.9 0.00 0.00 0.00 27 1013.2
20260504213003 78 156 7.8 13.9 0.00 0.00 0.00 27 1013.2
20260504212503 78 154 4.3 9.6 0.00 0.00 0.00 26 1013.3
20260504212003 78 176 2.6 13.9 0.00 0.00 0.00 26 1013.3
20260504211524 78 208 4.3 13.9 0.00 0.00 0.00 24 1013.3
20260504211002 78 201 5.2 13.0 0.00 0.00 0.00 23 1013.3
20260504210504 79 196 4.3 19.1 0.00 0.00 0.00 24 1013.4
20260504210003 79 155 7.0 19.1 0.00 0.00 0.00 23 1013.4
20260504205503 79 206 1.7 17.4 0.00 0.00 0.00 24 1013.4
20260504205024 79 169 7.8 14.8 0.00 0.00 0.00 25 1013.4
20260504204504 79 178 4.3 10.4 0.00 0.00 0.00 24 1013.6
20260504204004 79 161 2.6 12.2 0.00 0.00 0.00 25 1013.6
20260504203524 79 199 4.3 12.2 0.00 0.00 0.00 24 1013.7
20260504203003 79 171 4.3 10.4 0.00 0.00 0.00 25 1013.7
20260504202503 79 193 4.3 11.3 0.00 0.00 0.00 26 1013.8
20260504202004 79 179 3.5 11.3 0.00 0.00 0.00 24 1013.7
20260504201504 79 154 5.2 11.3 0.00 0.00 0.00 24 1013.9
20260504201003 79 186 3.5 8.7 0.00 0.00 0.00 27 1014.0
20260504200524 79 179 5.2 10.4 0.00 0.00 0.00 28 1014.0
20260504200002 79 175 5.2 12.2 0.00 0.00 0.00 27 1014.1
20260504195503 79 169 8.7 12.2 0.00 0.00 0.00 26 1014.2
20260504195002 78 175 2.6 12.2 0.00 0.00 0.00 24 1014.2
20260504194504 79 169 7.0 12.2 0.00 0.00 0.00 25 1014.1
20260504194003 79 154 5.2 10.4 0.00 0.00 0.00 26 1014.2
20260504193503 79 163 3.5 10.4 0.00 0.00 0.00 23 1014.4
20260504193003 79 155 7.0 10.4 0.00 0.00 0.00 25 1014.4
20260504192502 78 150 6.1 10.4 0.00 0.00 0.00 27 1014.4
20260504192002 78 175 5.2 10.4 0.00 0.00 0.00 24 1014.7
20260504191504 78 186 4.3 8.7 0.00 0.00 0.00 24 1014.7
20260504191024 79 199 4.3 11.3 0.00 0.00 0.00 25 1014.7
20260504190503 79 191 6.1 11.3 0.00 0.00 0.00 26 1014.7
20260504190003 78 210 1.7 8.7 0.00 0.00 0.00 28 1014.8
20260504185503 76 328 1.7 13.0 0.00 0.00 0.00 28 1014.9
20260504185002 77 208 4.3 13.0 0.00 0.00 0.00 28 1015.0
20260504184503 78 205 2.6 10.4 0.00 0.00 0.00 27 1015.0
20260504184004 78 162 6.1 10.4 0.00 0.00 0.00 28 1015.1
20260504183502 78 66 3.5 8.7 0.00 0.00 0.00 27 1015.0
20260504183025 77 201 4.3 8.7 0.00 0.00 0.00 27 1015.1
20260504182503 77 36 1.7 10.4 0.00 0.00 0.00 24 1015.2
20260504182003 77 181 5.2 10.4 0.00 0.00 0.00 28 1015.3
20260504181503 77 172 4.3 9.6 0.00 0.00 0.00 27 1015.2
20260504181003 77 176 6.1 10.4 0.00 0.00 0.00 28 1015.3
20260504180524 77 145 2.6 11.3 0.00 0.00 0.00 28 1015.3
20260504180003 76 161 6.1 11.3 0.00 0.00 0.00 31 1015.3
20260504175504 74 129 2.6 8.7 0.00 0.00 0.00 31 1015.3
20260504175004 75 168 2.6 12.2 0.00 0.00 0.00 30 1015.4
20260504174524 76 167 6.1 12.2 0.00 0.00 0.00 30 1015.6
20260504174002 75 150 3.5 9.6 0.00 0.00 0.00 28 1015.6
20260504173524 76 171 3.5 9.6 0.00 0.00 0.00 31 1015.7
20260504173003 75 178 2.6 6.1 0.00 0.00 0.00 31 1015.9
20260504172503 74 214 1.7 8.7 0.00 0.00 0.00 29 1015.9
20260504172024 75 179 4.3 9.6 0.00 0.00 0.00 31 1016.0
20260504171504 75 173 6.1 9.6 0.00 0.00 0.00 32 1015.9
20260504171004 74 182 4.3 8.7 0.00 0.00 0.00 30 1015.9
20260504170504 74 156 2.6 6.1 0.00 0.00 0.00 33 1016.0
20260504151004 69 168 1.7 5.2 0.00 0.00 0.00 40 1017.0
20260504150503 69 221 1.7 6.1 0.00 0.00 0.00 40 1016.9
20260504141003 65 61 1.7 3.5 0.00 0.00 0.00 50 1017.2
20260504140503 64 63 1.7 3.5 0.00 0.00 0.00 49 1017.2
20260504130504 58 20 0.9 2.6 0.00 0.00 0.00 64 1017.3
20260504110503 44 0 0.0 1.7 0.00 0.00 0.00 83 1017.0
20260504100503 45 146 1.7 1.7 0.00 0.00 0.00 81 1016.5
20260504082004 46 145 0.9 2.6 0.00 0.00 0.00 78 1016.2
20260504081503 46 146 0.9 2.6 0.00 0.00 0.00 78 1016.1
20260504081003 47 146 0.0 1.7 0.00 0.00 0.00 77 1016.0
20260504080525 47 146 0.0 1.7 0.00 0.00 0.00 77 1016.1
20260504050502 51 153 0.0 1.7 0.00 0.00 0.00 68 1016.5
20260504050003 52 0 0.0 3.5 0.00 0.00 0.00 67 1016.6
20260504045502 52 153 0.0 4.3 0.00 0.00 0.00 67 1016.5
20260504045023 52 161 1.7 4.3 0.00 0.00 0.00 67 1016.5
20260504044502 52 174 1.7 4.3 0.00 0.00 0.00 65 1016.5
20260504044002 52 159 0.9 3.5 0.00 0.00 0.00 67 1016.6
20260504043523 52 156 1.7 4.3 0.00 0.00 0.00 67 1016.6
20260504043024 52 157 2.6 4.3 0.00 0.00 0.00 65 1016.6
20260504042503 52 149 2.6 4.3 0.00 0.00 0.00 65 1016.7
20260504042023 52 148 1.7 2.6 0.00 0.00 0.00 65 1016.7
20260504041503 52 148 0.9 1.7 0.00 0.00 0.00 65 1016.8
20260504041023 53 148 0.0 1.7 0.00 0.00 0.00 64 1016.9
20260504040503 53 148 0.9 1.7 0.00 0.00 0.00 63 1017.0
20260504040002 54 148 0.0 2.6 0.00 0.00 0.00 63 1016.9
20260504035503 54 148 0.0 5.2 0.00 0.00 0.00 62 1016.9
20260504035023 53 174 1.7 5.2 0.00 0.00 0.00 62 1016.9
20260504034502 53 179 0.9 2.6 0.00 0.00 0.00 63 1016.9
20260504034003 53 184 0.0 2.6 0.00 0.00 0.00 63 1016.9
20260504033503 53 184 1.7 3.5 0.00 0.00 0.00 62 1017.0
20260504033024 53 184 0.9 3.5 0.00 0.00 0.00 62 1017.0